<?xml version="1.0" encoding="UTF-8" standalone="no" ?>
<gpx xmlns="http://www.topografix.com/GPX/1/1" xmlns:xsi="http://www.w3.org/2001/XMLSchema-instance" xsi:schemaLocation="http://www.topografix.com/GPX/1/1 http://www.topografix.com/GPX/1/1/gpx.xsd" version="1.1" creator="VisuGPX - https://www.visugpx.com">
  <metadata>
    <name>Truc sous Oisy</name>
    <desc><![CDATA[Billy sous Oisy
Passeport Détente ]]></desc>
  </metadata>
  <trk>
    <name><![CDATA[2021-09-27 18.02.04 on AllTrails]]></name>
    <extensions>
      <line xmlns="http://www.topografix.com/GPX/gpx_style/0/2">
        <color>0000FF</color>
        <width>4</width>
      </line>
    </extensions>
    <trkseg>
      <trkpt lat="47.53553" lon="3.69159">
        <ele>205</ele>
        <time>2021-09-27T16:02:04Z</time>
      </trkpt>
      <trkpt lat="47.53539" lon="3.69166">
        <ele>203</ele>
        <time>2021-09-27T16:01:53Z</time>
      </trkpt>
      <trkpt lat="47.53541" lon="3.69191">
        <ele>202</ele>
        <time>2021-09-27T16:01:22Z</time>
      </trkpt>
      <trkpt lat="47.53539" lon="3.69188">
        <ele>202</ele>
        <time>2021-09-27T16:01:21Z</time>
      </trkpt>
      <trkpt lat="47.53537" lon="3.69186">
        <ele>202</ele>
        <time>2021-09-27T16:01:20Z</time>
      </trkpt>
      <trkpt lat="47.53536" lon="3.69184">
        <ele>202</ele>
        <time>2021-09-27T16:01:19Z</time>
      </trkpt>
      <trkpt lat="47.5353" lon="3.69178">
        <ele>202</ele>
        <time>2021-09-27T16:01:17Z</time>
      </trkpt>
      <trkpt lat="47.53532" lon="3.69176">
        <ele>202</ele>
        <time>2021-09-27T16:01:02Z</time>
      </trkpt>
      <trkpt lat="47.53532" lon="3.69166">
        <ele>203</ele>
        <time>2021-09-27T16:00:47Z</time>
      </trkpt>
      <trkpt lat="47.53527" lon="3.69153">
        <ele>202</ele>
        <time>2021-09-27T16:00:28Z</time>
      </trkpt>
      <trkpt lat="47.53528" lon="3.69155">
        <ele>203</ele>
        <time>2021-09-27T16:00:10Z</time>
      </trkpt>
      <trkpt lat="47.53529" lon="3.69158">
        <ele>203</ele>
        <time>2021-09-27T15:59:57Z</time>
      </trkpt>
      <trkpt lat="47.5355" lon="3.69148">
        <ele>205</ele>
        <time>2021-09-27T15:59:43Z</time>
      </trkpt>
      <trkpt lat="47.53571" lon="3.6914">
        <ele>205</ele>
        <time>2021-09-27T15:59:32Z</time>
      </trkpt>
      <trkpt lat="47.53594" lon="3.69132">
        <ele>206</ele>
        <time>2021-09-27T15:59:16Z</time>
      </trkpt>
      <trkpt lat="47.5361" lon="3.69136">
        <ele>207</ele>
        <time>2021-09-27T15:59:06Z</time>
      </trkpt>
      <trkpt lat="47.5361" lon="3.69136">
        <ele>207</ele>
        <time>2021-09-27T15:59:04Z</time>
      </trkpt>
      <trkpt lat="47.53553" lon="3.69143">
        <ele>205</ele>
        <time>2021-09-27T15:58:34Z</time>
      </trkpt>
      <trkpt lat="47.53549" lon="3.69143">
        <ele>205</ele>
        <time>2021-09-27T15:58:33Z</time>
      </trkpt>
      <trkpt lat="47.53545" lon="3.69144">
        <ele>204</ele>
        <time>2021-09-27T15:58:32Z</time>
      </trkpt>
      <trkpt lat="47.53542" lon="3.69144">
        <ele>204</ele>
        <time>2021-09-27T15:58:31Z</time>
      </trkpt>
      <trkpt lat="47.5354" lon="3.69144">
        <ele>204</ele>
        <time>2021-09-27T15:58:30Z</time>
      </trkpt>
      <trkpt lat="47.53539" lon="3.69144">
        <ele>204</ele>
        <time>2021-09-27T15:58:29Z</time>
      </trkpt>
      <trkpt lat="47.53525" lon="3.6914">
        <ele>202</ele>
        <time>2021-09-27T15:58:17Z</time>
      </trkpt>
      <trkpt lat="47.53514" lon="3.69097">
        <ele>199</ele>
        <time>2021-09-27T15:58:01Z</time>
      </trkpt>
      <trkpt lat="47.53509" lon="3.69106">
        <ele>199</ele>
        <time>2021-09-27T15:57:44Z</time>
      </trkpt>
      <trkpt lat="47.53511" lon="3.69115">
        <ele>200</ele>
        <time>2021-09-27T15:57:27Z</time>
      </trkpt>
      <trkpt lat="47.53514" lon="3.69124">
        <ele>200</ele>
        <time>2021-09-27T15:57:10Z</time>
      </trkpt>
      <trkpt lat="47.53522" lon="3.69146">
        <ele>202</ele>
        <time>2021-09-27T15:56:51Z</time>
      </trkpt>
      <trkpt lat="47.53524" lon="3.6915">
        <ele>202</ele>
        <time>2021-09-27T15:56:32Z</time>
      </trkpt>
      <trkpt lat="47.53525" lon="3.69156">
        <ele>202</ele>
        <time>2021-09-27T15:56:12Z</time>
      </trkpt>
      <trkpt lat="47.53525" lon="3.69145">
        <ele>202</ele>
        <time>2021-09-27T15:55:44Z</time>
      </trkpt>
      <trkpt lat="47.53521" lon="3.69139">
        <ele>202</ele>
        <time>2021-09-27T15:55:25Z</time>
      </trkpt>
      <trkpt lat="47.53519" lon="3.69135">
        <ele>201</ele>
        <time>2021-09-27T15:55:01Z</time>
      </trkpt>
      <trkpt lat="47.53518" lon="3.69143">
        <ele>201</ele>
        <time>2021-09-27T15:54:43Z</time>
      </trkpt>
      <trkpt lat="47.5352" lon="3.69147">
        <ele>201</ele>
        <time>2021-09-27T15:54:27Z</time>
      </trkpt>
      <trkpt lat="47.53516" lon="3.6914">
        <ele>201</ele>
        <time>2021-09-27T15:54:06Z</time>
      </trkpt>
      <trkpt lat="47.53519" lon="3.69136">
        <ele>201</ele>
        <time>2021-09-27T15:53:46Z</time>
      </trkpt>
      <trkpt lat="47.53521" lon="3.69139">
        <ele>202</ele>
        <time>2021-09-27T15:53:27Z</time>
      </trkpt>
      <trkpt lat="47.53522" lon="3.69138">
        <ele>202</ele>
        <time>2021-09-27T15:53:09Z</time>
      </trkpt>
      <trkpt lat="47.53523" lon="3.6914">
        <ele>202</ele>
        <time>2021-09-27T15:52:53Z</time>
      </trkpt>
      <trkpt lat="47.53523" lon="3.69144">
        <ele>202</ele>
        <time>2021-09-27T15:52:30Z</time>
      </trkpt>
      <trkpt lat="47.53526" lon="3.69152">
        <ele>202</ele>
        <time>2021-09-27T15:52:09Z</time>
      </trkpt>
      <trkpt lat="47.53526" lon="3.69153">
        <ele>202</ele>
        <time>2021-09-27T15:52:08Z</time>
      </trkpt>
      <trkpt lat="47.53526" lon="3.69155">
        <ele>202</ele>
        <time>2021-09-27T15:51:52Z</time>
      </trkpt>
      <trkpt lat="47.53523" lon="3.69151">
        <ele>202</ele>
        <time>2021-09-27T15:51:37Z</time>
      </trkpt>
      <trkpt lat="47.5352" lon="3.69146">
        <ele>201</ele>
        <time>2021-09-27T15:51:18Z</time>
      </trkpt>
      <trkpt lat="47.53524" lon="3.69147">
        <ele>202</ele>
        <time>2021-09-27T15:50:59Z</time>
      </trkpt>
      <trkpt lat="47.53529" lon="3.69152">
        <ele>203</ele>
        <time>2021-09-27T15:50:51Z</time>
      </trkpt>
      <trkpt lat="47.5353" lon="3.69164">
        <ele>203</ele>
        <time>2021-09-27T15:50:32Z</time>
      </trkpt>
      <trkpt lat="47.53531" lon="3.69163">
        <ele>203</ele>
        <time>2021-09-27T15:50:18Z</time>
      </trkpt>
      <trkpt lat="47.53532" lon="3.69152">
        <ele>203</ele>
        <time>2021-09-27T15:50:03Z</time>
      </trkpt>
      <trkpt lat="47.5353" lon="3.69159">
        <ele>203</ele>
        <time>2021-09-27T15:49:45Z</time>
      </trkpt>
      <trkpt lat="47.53539" lon="3.69166">
        <ele>203</ele>
        <time>2021-09-27T15:49:26Z</time>
      </trkpt>
      <trkpt lat="47.53545" lon="3.69172">
        <ele>203</ele>
        <time>2021-09-27T15:49:06Z</time>
      </trkpt>
      <trkpt lat="47.53544" lon="3.69166">
        <ele>204</ele>
        <time>2021-09-27T15:48:48Z</time>
      </trkpt>
      <trkpt lat="47.53539" lon="3.69161">
        <ele>203</ele>
        <time>2021-09-27T15:48:30Z</time>
      </trkpt>
      <trkpt lat="47.53542" lon="3.69156">
        <ele>204</ele>
        <time>2021-09-27T15:48:13Z</time>
      </trkpt>
      <trkpt lat="47.53543" lon="3.69155">
        <ele>204</ele>
        <time>2021-09-27T15:47:56Z</time>
      </trkpt>
      <trkpt lat="47.53542" lon="3.69164">
        <ele>204</ele>
        <time>2021-09-27T15:47:37Z</time>
      </trkpt>
      <trkpt lat="47.53528" lon="3.69156">
        <ele>203</ele>
        <time>2021-09-27T15:47:19Z</time>
      </trkpt>
      <trkpt lat="47.53519" lon="3.69152">
        <ele>201</ele>
        <time>2021-09-27T15:47:02Z</time>
      </trkpt>
      <trkpt lat="47.53519" lon="3.69154">
        <ele>201</ele>
        <time>2021-09-27T15:46:46Z</time>
      </trkpt>
      <trkpt lat="47.53517" lon="3.69146">
        <ele>201</ele>
        <time>2021-09-27T15:46:30Z</time>
      </trkpt>
      <trkpt lat="47.53515" lon="3.6914">
        <ele>201</ele>
        <time>2021-09-27T15:46:16Z</time>
      </trkpt>
      <trkpt lat="47.53511" lon="3.69132">
        <ele>200</ele>
        <time>2021-09-27T15:46:01Z</time>
      </trkpt>
      <trkpt lat="47.53501" lon="3.69109">
        <ele>198</ele>
        <time>2021-09-27T15:45:48Z</time>
      </trkpt>
      <trkpt lat="47.535" lon="3.69108">
        <ele>197</ele>
        <time>2021-09-27T15:45:36Z</time>
      </trkpt>
      <trkpt lat="47.53505" lon="3.69117">
        <ele>199</ele>
        <time>2021-09-27T15:45:20Z</time>
      </trkpt>
      <trkpt lat="47.53505" lon="3.69116">
        <ele>199</ele>
        <time>2021-09-27T15:45:17Z</time>
      </trkpt>
      <trkpt lat="47.53508" lon="3.69129">
        <ele>199</ele>
        <time>2021-09-27T15:45:00Z</time>
      </trkpt>
      <trkpt lat="47.53508" lon="3.69127">
        <ele>199</ele>
        <time>2021-09-27T15:44:58Z</time>
      </trkpt>
      <trkpt lat="47.53513" lon="3.69146">
        <ele>200</ele>
        <time>2021-09-27T15:44:44Z</time>
      </trkpt>
      <trkpt lat="47.53521" lon="3.69144">
        <ele>202</ele>
        <time>2021-09-27T15:44:34Z</time>
      </trkpt>
      <trkpt lat="47.53524" lon="3.69146">
        <ele>202</ele>
        <time>2021-09-27T15:44:15Z</time>
      </trkpt>
      <trkpt lat="47.53527" lon="3.69149">
        <ele>202</ele>
        <time>2021-09-27T15:43:59Z</time>
      </trkpt>
      <trkpt lat="47.53524" lon="3.69144">
        <ele>202</ele>
        <time>2021-09-27T15:43:40Z</time>
      </trkpt>
      <trkpt lat="47.53521" lon="3.69136">
        <ele>201</ele>
        <time>2021-09-27T15:43:21Z</time>
      </trkpt>
      <trkpt lat="47.53518" lon="3.69138">
        <ele>201</ele>
        <time>2021-09-27T15:43:05Z</time>
      </trkpt>
      <trkpt lat="47.53515" lon="3.69141">
        <ele>201</ele>
        <time>2021-09-27T15:43:02Z</time>
      </trkpt>
      <trkpt lat="47.53511" lon="3.69138">
        <ele>200</ele>
        <time>2021-09-27T15:42:43Z</time>
      </trkpt>
      <trkpt lat="47.53509" lon="3.69128">
        <ele>200</ele>
        <time>2021-09-27T15:42:24Z</time>
      </trkpt>
      <trkpt lat="47.53512" lon="3.69118">
        <ele>200</ele>
        <time>2021-09-27T15:42:04Z</time>
      </trkpt>
      <trkpt lat="47.53515" lon="3.69119">
        <ele>200</ele>
        <time>2021-09-27T15:41:46Z</time>
      </trkpt>
      <trkpt lat="47.5352" lon="3.69134">
        <ele>201</ele>
        <time>2021-09-27T15:41:32Z</time>
      </trkpt>
      <trkpt lat="47.53521" lon="3.69143">
        <ele>202</ele>
        <time>2021-09-27T15:41:15Z</time>
      </trkpt>
      <trkpt lat="47.53523" lon="3.69129">
        <ele>202</ele>
        <time>2021-09-27T15:40:55Z</time>
      </trkpt>
      <trkpt lat="47.53519" lon="3.69124">
        <ele>201</ele>
        <time>2021-09-27T15:40:37Z</time>
      </trkpt>
      <trkpt lat="47.53519" lon="3.69124">
        <ele>201</ele>
        <time>2021-09-27T15:40:19Z</time>
      </trkpt>
      <trkpt lat="47.53523" lon="3.69127">
        <ele>202</ele>
        <time>2021-09-27T15:40:03Z</time>
      </trkpt>
      <trkpt lat="47.53524" lon="3.69146">
        <ele>202</ele>
        <time>2021-09-27T15:39:43Z</time>
      </trkpt>
      <trkpt lat="47.53524" lon="3.69144">
        <ele>202</ele>
        <time>2021-09-27T15:39:26Z</time>
      </trkpt>
      <trkpt lat="47.53528" lon="3.69138">
        <ele>203</ele>
        <time>2021-09-27T15:39:12Z</time>
      </trkpt>
      <trkpt lat="47.53519" lon="3.69118">
        <ele>201</ele>
        <time>2021-09-27T15:38:56Z</time>
      </trkpt>
      <trkpt lat="47.53519" lon="3.69124">
        <ele>201</ele>
        <time>2021-09-27T15:38:40Z</time>
      </trkpt>
      <trkpt lat="47.53521" lon="3.69136">
        <ele>201</ele>
        <time>2021-09-27T15:38:23Z</time>
      </trkpt>
      <trkpt lat="47.53523" lon="3.69138">
        <ele>202</ele>
        <time>2021-09-27T15:37:54Z</time>
      </trkpt>
      <trkpt lat="47.53521" lon="3.69133">
        <ele>201</ele>
        <time>2021-09-27T15:37:27Z</time>
      </trkpt>
      <trkpt lat="47.53523" lon="3.69138">
        <ele>202</ele>
        <time>2021-09-27T15:36:57Z</time>
      </trkpt>
      <trkpt lat="47.53528" lon="3.69139">
        <ele>203</ele>
        <time>2021-09-27T15:36:25Z</time>
      </trkpt>
      <trkpt lat="47.53533" lon="3.6915">
        <ele>203</ele>
        <time>2021-09-27T15:35:58Z</time>
      </trkpt>
      <trkpt lat="47.53532" lon="3.69147">
        <ele>203</ele>
        <time>2021-09-27T15:35:39Z</time>
      </trkpt>
      <trkpt lat="47.53535" lon="3.69149">
        <ele>203</ele>
        <time>2021-09-27T15:35:10Z</time>
      </trkpt>
      <trkpt lat="47.53534" lon="3.6915">
        <ele>203</ele>
        <time>2021-09-27T15:34:55Z</time>
      </trkpt>
      <trkpt lat="47.53534" lon="3.69147">
        <ele>203</ele>
        <time>2021-09-27T15:34:40Z</time>
      </trkpt>
      <trkpt lat="47.53532" lon="3.69142">
        <ele>203</ele>
        <time>2021-09-27T15:34:35Z</time>
      </trkpt>
      <trkpt lat="47.53531" lon="3.69137">
        <ele>203</ele>
        <time>2021-09-27T15:34:17Z</time>
      </trkpt>
      <trkpt lat="47.5353" lon="3.69136">
        <ele>203</ele>
        <time>2021-09-27T15:34:15Z</time>
      </trkpt>
      <trkpt lat="47.53525" lon="3.69127">
        <ele>202</ele>
        <time>2021-09-27T15:33:58Z</time>
      </trkpt>
      <trkpt lat="47.53526" lon="3.69129">
        <ele>202</ele>
        <time>2021-09-27T15:33:14Z</time>
      </trkpt>
      <trkpt lat="47.53527" lon="3.69131">
        <ele>202</ele>
        <time>2021-09-27T15:33:08Z</time>
      </trkpt>
      <trkpt lat="47.53528" lon="3.69134">
        <ele>202</ele>
        <time>2021-09-27T15:33:07Z</time>
      </trkpt>
      <trkpt lat="47.53528" lon="3.69137">
        <ele>203</ele>
        <time>2021-09-27T15:33:06Z</time>
      </trkpt>
      <trkpt lat="47.53513" lon="3.69157">
        <ele>200</ele>
        <time>2021-09-27T15:33:01Z</time>
      </trkpt>
      <trkpt lat="47.53508" lon="3.69162">
        <ele>200</ele>
        <time>2021-09-27T15:33:00Z</time>
      </trkpt>
      <trkpt lat="47.53502" lon="3.69166">
        <ele>199</ele>
        <time>2021-09-27T15:32:59Z</time>
      </trkpt>
      <trkpt lat="47.53496" lon="3.69167">
        <ele>198</ele>
        <time>2021-09-27T15:32:58Z</time>
      </trkpt>
      <trkpt lat="47.53491" lon="3.69166">
        <ele>198</ele>
        <time>2021-09-27T15:32:57Z</time>
      </trkpt>
      <trkpt lat="47.53487" lon="3.69162">
        <ele>197</ele>
        <time>2021-09-27T15:32:56Z</time>
      </trkpt>
      <trkpt lat="47.53466" lon="3.69104">
        <ele>194</ele>
        <time>2021-09-27T15:32:50Z</time>
      </trkpt>
      <trkpt lat="47.53444" lon="3.69041">
        <ele>191</ele>
        <time>2021-09-27T15:32:46Z</time>
      </trkpt>
      <trkpt lat="47.53421" lon="3.6895">
        <ele>190</ele>
        <time>2021-09-27T15:32:41Z</time>
      </trkpt>
      <trkpt lat="47.53418" lon="3.68935">
        <ele>190</ele>
        <time>2021-09-27T15:32:40Z</time>
      </trkpt>
      <trkpt lat="47.53416" lon="3.68921">
        <ele>190</ele>
        <time>2021-09-27T15:32:39Z</time>
      </trkpt>
      <trkpt lat="47.53414" lon="3.68907">
        <ele>189</ele>
        <time>2021-09-27T15:32:38Z</time>
      </trkpt>
      <trkpt lat="47.53413" lon="3.68895">
        <ele>188</ele>
        <time>2021-09-27T15:32:37Z</time>
      </trkpt>
      <trkpt lat="47.53415" lon="3.68882">
        <ele>187</ele>
        <time>2021-09-27T15:32:36Z</time>
      </trkpt>
      <trkpt lat="47.53418" lon="3.68871">
        <ele>186</ele>
        <time>2021-09-27T15:32:35Z</time>
      </trkpt>
      <trkpt lat="47.53434" lon="3.68833">
        <ele>184</ele>
        <time>2021-09-27T15:32:32Z</time>
      </trkpt>
      <trkpt lat="47.53439" lon="3.6882">
        <ele>184</ele>
        <time>2021-09-27T15:32:31Z</time>
      </trkpt>
      <trkpt lat="47.53455" lon="3.68746">
        <ele>181</ele>
        <time>2021-09-27T15:32:25Z</time>
      </trkpt>
      <trkpt lat="47.53458" lon="3.68736">
        <ele>180</ele>
        <time>2021-09-27T15:32:24Z</time>
      </trkpt>
      <trkpt lat="47.53461" lon="3.68592">
        <ele>173</ele>
        <time>2021-09-27T15:32:14Z</time>
      </trkpt>
      <trkpt lat="47.53451" lon="3.68515">
        <ele>174</ele>
        <time>2021-09-27T15:32:09Z</time>
      </trkpt>
      <trkpt lat="47.53449" lon="3.68499">
        <ele>174</ele>
        <time>2021-09-27T15:32:08Z</time>
      </trkpt>
      <trkpt lat="47.53446" lon="3.68484">
        <ele>175</ele>
        <time>2021-09-27T15:32:07Z</time>
      </trkpt>
      <trkpt lat="47.53442" lon="3.68468">
        <ele>176</ele>
        <time>2021-09-27T15:32:06Z</time>
      </trkpt>
      <trkpt lat="47.53437" lon="3.68452">
        <ele>178</ele>
        <time>2021-09-27T15:32:05Z</time>
      </trkpt>
      <trkpt lat="47.53431" lon="3.68438">
        <ele>179</ele>
        <time>2021-09-27T15:32:04Z</time>
      </trkpt>
      <trkpt lat="47.53425" lon="3.68426">
        <ele>179</ele>
        <time>2021-09-27T15:32:03Z</time>
      </trkpt>
      <trkpt lat="47.53417" lon="3.68415">
        <ele>180</ele>
        <time>2021-09-27T15:32:02Z</time>
      </trkpt>
      <trkpt lat="47.53409" lon="3.68407">
        <ele>180</ele>
        <time>2021-09-27T15:32:01Z</time>
      </trkpt>
      <trkpt lat="47.534" lon="3.684">
        <ele>181</ele>
        <time>2021-09-27T15:32:00Z</time>
      </trkpt>
      <trkpt lat="47.53363" lon="3.68397">
        <ele>185</ele>
        <time>2021-09-27T15:31:56Z</time>
      </trkpt>
      <trkpt lat="47.53337" lon="3.68397">
        <ele>187</ele>
        <time>2021-09-27T15:31:53Z</time>
      </trkpt>
      <trkpt lat="47.53328" lon="3.68397">
        <ele>188</ele>
        <time>2021-09-27T15:31:52Z</time>
      </trkpt>
      <trkpt lat="47.53319" lon="3.68396">
        <ele>188</ele>
        <time>2021-09-27T15:31:51Z</time>
      </trkpt>
      <trkpt lat="47.5331" lon="3.68394">
        <ele>188</ele>
        <time>2021-09-27T15:31:50Z</time>
      </trkpt>
      <trkpt lat="47.53302" lon="3.68388">
        <ele>189</ele>
        <time>2021-09-27T15:31:49Z</time>
      </trkpt>
      <trkpt lat="47.53296" lon="3.6838">
        <ele>189</ele>
        <time>2021-09-27T15:31:48Z</time>
      </trkpt>
      <trkpt lat="47.53292" lon="3.68369">
        <ele>190</ele>
        <time>2021-09-27T15:31:47Z</time>
      </trkpt>
      <trkpt lat="47.53288" lon="3.68343">
        <ele>191</ele>
        <time>2021-09-27T15:31:45Z</time>
      </trkpt>
      <trkpt lat="47.53283" lon="3.68286">
        <ele>193</ele>
        <time>2021-09-27T15:31:42Z</time>
      </trkpt>
      <trkpt lat="47.53275" lon="3.68214">
        <ele>196</ele>
        <time>2021-09-27T15:31:39Z</time>
      </trkpt>
      <trkpt lat="47.5326" lon="3.68081">
        <ele>199</ele>
        <time>2021-09-27T15:31:34Z</time>
      </trkpt>
      <trkpt lat="47.53235" lon="3.67957">
        <ele>203</ele>
        <time>2021-09-27T15:31:29Z</time>
      </trkpt>
      <trkpt lat="47.53228" lon="3.67934">
        <ele>204</ele>
        <time>2021-09-27T15:31:28Z</time>
      </trkpt>
      <trkpt lat="47.5322" lon="3.67911">
        <ele>205</ele>
        <time>2021-09-27T15:31:27Z</time>
      </trkpt>
      <trkpt lat="47.53211" lon="3.6789">
        <ele>205</ele>
        <time>2021-09-27T15:31:26Z</time>
      </trkpt>
      <trkpt lat="47.53177" lon="3.67831">
        <ele>207</ele>
        <time>2021-09-27T15:31:23Z</time>
      </trkpt>
      <trkpt lat="47.53132" lon="3.67755">
        <ele>213</ele>
        <time>2021-09-27T15:31:19Z</time>
      </trkpt>
      <trkpt lat="47.531" lon="3.67702">
        <ele>216</ele>
        <time>2021-09-27T15:31:16Z</time>
      </trkpt>
      <trkpt lat="47.53079" lon="3.6767">
        <ele>218</ele>
        <time>2021-09-27T15:31:14Z</time>
      </trkpt>
      <trkpt lat="47.53071" lon="3.67654">
        <ele>218</ele>
        <time>2021-09-27T15:31:13Z</time>
      </trkpt>
      <trkpt lat="47.53065" lon="3.67637">
        <ele>219</ele>
        <time>2021-09-27T15:31:12Z</time>
      </trkpt>
      <trkpt lat="47.53057" lon="3.67558">
        <ele>226</ele>
        <time>2021-09-27T15:31:08Z</time>
      </trkpt>
      <trkpt lat="47.53058" lon="3.67489">
        <ele>231</ele>
        <time>2021-09-27T15:31:05Z</time>
      </trkpt>
      <trkpt lat="47.53059" lon="3.67467">
        <ele>233</ele>
        <time>2021-09-27T15:31:04Z</time>
      </trkpt>
      <trkpt lat="47.53061" lon="3.67446">
        <ele>235</ele>
        <time>2021-09-27T15:31:03Z</time>
      </trkpt>
      <trkpt lat="47.53064" lon="3.67425">
        <ele>237</ele>
        <time>2021-09-27T15:31:02Z</time>
      </trkpt>
      <trkpt lat="47.5307" lon="3.67406">
        <ele>239</ele>
        <time>2021-09-27T15:31:01Z</time>
      </trkpt>
      <trkpt lat="47.53097" lon="3.67358">
        <ele>244</ele>
        <time>2021-09-27T15:30:58Z</time>
      </trkpt>
      <trkpt lat="47.53122" lon="3.67308">
        <ele>248</ele>
        <time>2021-09-27T15:30:55Z</time>
      </trkpt>
      <trkpt lat="47.53142" lon="3.67259">
        <ele>251</ele>
        <time>2021-09-27T15:30:52Z</time>
      </trkpt>
      <trkpt lat="47.53168" lon="3.67197">
        <ele>254</ele>
        <time>2021-09-27T15:30:48Z</time>
      </trkpt>
      <trkpt lat="47.53203" lon="3.67087">
        <ele>257</ele>
        <time>2021-09-27T15:30:43Z</time>
      </trkpt>
      <trkpt lat="47.53209" lon="3.67063">
        <ele>259</ele>
        <time>2021-09-27T15:30:42Z</time>
      </trkpt>
      <trkpt lat="47.53222" lon="3.66943">
        <ele>263</ele>
        <time>2021-09-27T15:30:37Z</time>
      </trkpt>
      <trkpt lat="47.53256" lon="3.6663">
        <ele>270</ele>
        <time>2021-09-27T15:30:24Z</time>
      </trkpt>
      <trkpt lat="47.53271" lon="3.66526">
        <ele>268</ele>
        <time>2021-09-27T15:30:20Z</time>
      </trkpt>
      <trkpt lat="47.5329" lon="3.66413">
        <ele>266</ele>
        <time>2021-09-27T15:30:16Z</time>
      </trkpt>
      <trkpt lat="47.53295" lon="3.66384">
        <ele>266</ele>
        <time>2021-09-27T15:30:15Z</time>
      </trkpt>
      <trkpt lat="47.53298" lon="3.66325">
        <ele>263</ele>
        <time>2021-09-27T15:30:13Z</time>
      </trkpt>
      <trkpt lat="47.53311" lon="3.66184">
        <ele>260</ele>
        <time>2021-09-27T15:30:08Z</time>
      </trkpt>
      <trkpt lat="47.53313" lon="3.66046">
        <ele>258</ele>
        <time>2021-09-27T15:30:03Z</time>
      </trkpt>
      <trkpt lat="47.53313" lon="3.6602">
        <ele>259</ele>
        <time>2021-09-27T15:30:02Z</time>
      </trkpt>
      <trkpt lat="47.53301" lon="3.65918">
        <ele>259</ele>
        <time>2021-09-27T15:29:58Z</time>
      </trkpt>
      <trkpt lat="47.53299" lon="3.65894">
        <ele>258</ele>
        <time>2021-09-27T15:29:57Z</time>
      </trkpt>
      <trkpt lat="47.53297" lon="3.65871">
        <ele>256</ele>
        <time>2021-09-27T15:29:56Z</time>
      </trkpt>
      <trkpt lat="47.53294" lon="3.6585">
        <ele>256</ele>
        <time>2021-09-27T15:29:55Z</time>
      </trkpt>
      <trkpt lat="47.53289" lon="3.65831">
        <ele>255</ele>
        <time>2021-09-27T15:29:54Z</time>
      </trkpt>
      <trkpt lat="47.53283" lon="3.65814">
        <ele>254</ele>
        <time>2021-09-27T15:29:53Z</time>
      </trkpt>
      <trkpt lat="47.53277" lon="3.65798">
        <ele>253</ele>
        <time>2021-09-27T15:29:52Z</time>
      </trkpt>
      <trkpt lat="47.53272" lon="3.65782">
        <ele>251</ele>
        <time>2021-09-27T15:29:51Z</time>
      </trkpt>
      <trkpt lat="47.53269" lon="3.65766">
        <ele>249</ele>
        <time>2021-09-27T15:29:50Z</time>
      </trkpt>
      <trkpt lat="47.5327" lon="3.65752">
        <ele>248</ele>
        <time>2021-09-27T15:29:49Z</time>
      </trkpt>
      <trkpt lat="47.53272" lon="3.65737">
        <ele>247</ele>
        <time>2021-09-27T15:29:48Z</time>
      </trkpt>
      <trkpt lat="47.53277" lon="3.65724">
        <ele>246</ele>
        <time>2021-09-27T15:29:47Z</time>
      </trkpt>
      <trkpt lat="47.53282" lon="3.65711">
        <ele>245</ele>
        <time>2021-09-27T15:29:46Z</time>
      </trkpt>
      <trkpt lat="47.53289" lon="3.65698">
        <ele>244</ele>
        <time>2021-09-27T15:29:45Z</time>
      </trkpt>
      <trkpt lat="47.53296" lon="3.65686">
        <ele>244</ele>
        <time>2021-09-27T15:29:44Z</time>
      </trkpt>
      <trkpt lat="47.53305" lon="3.65677">
        <ele>244</ele>
        <time>2021-09-27T15:29:43Z</time>
      </trkpt>
      <trkpt lat="47.53315" lon="3.6567">
        <ele>244</ele>
        <time>2021-09-27T15:29:42Z</time>
      </trkpt>
      <trkpt lat="47.53324" lon="3.65665">
        <ele>243</ele>
        <time>2021-09-27T15:29:41Z</time>
      </trkpt>
      <trkpt lat="47.53331" lon="3.65658">
        <ele>243</ele>
        <time>2021-09-27T15:29:40Z</time>
      </trkpt>
      <trkpt lat="47.53337" lon="3.65649">
        <ele>243</ele>
        <time>2021-09-27T15:29:39Z</time>
      </trkpt>
      <trkpt lat="47.53339" lon="3.65637">
        <ele>242</ele>
        <time>2021-09-27T15:29:38Z</time>
      </trkpt>
      <trkpt lat="47.53338" lon="3.65624">
        <ele>242</ele>
        <time>2021-09-27T15:29:37Z</time>
      </trkpt>
      <trkpt lat="47.53333" lon="3.65613">
        <ele>242</ele>
        <time>2021-09-27T15:29:36Z</time>
      </trkpt>
      <trkpt lat="47.53325" lon="3.65606">
        <ele>241</ele>
        <time>2021-09-27T15:29:35Z</time>
      </trkpt>
      <trkpt lat="47.53314" lon="3.65601">
        <ele>241</ele>
        <time>2021-09-27T15:29:34Z</time>
      </trkpt>
      <trkpt lat="47.53302" lon="3.65597">
        <ele>240</ele>
        <time>2021-09-27T15:29:33Z</time>
      </trkpt>
      <trkpt lat="47.5329" lon="3.65596">
        <ele>240</ele>
        <time>2021-09-27T15:29:32Z</time>
      </trkpt>
      <trkpt lat="47.53277" lon="3.65593">
        <ele>239</ele>
        <time>2021-09-27T15:29:31Z</time>
      </trkpt>
      <trkpt lat="47.53266" lon="3.65586">
        <ele>238</ele>
        <time>2021-09-27T15:29:30Z</time>
      </trkpt>
      <trkpt lat="47.53255" lon="3.65577">
        <ele>236</ele>
        <time>2021-09-27T15:29:29Z</time>
      </trkpt>
      <trkpt lat="47.53245" lon="3.65565">
        <ele>234</ele>
        <time>2021-09-27T15:29:28Z</time>
      </trkpt>
      <trkpt lat="47.53237" lon="3.65551">
        <ele>233</ele>
        <time>2021-09-27T15:29:27Z</time>
      </trkpt>
      <trkpt lat="47.5323" lon="3.65535">
        <ele>231</ele>
        <time>2021-09-27T15:29:26Z</time>
      </trkpt>
      <trkpt lat="47.53219" lon="3.65499">
        <ele>229</ele>
        <time>2021-09-27T15:29:24Z</time>
      </trkpt>
      <trkpt lat="47.53203" lon="3.65436">
        <ele>227</ele>
        <time>2021-09-27T15:29:21Z</time>
      </trkpt>
      <trkpt lat="47.53189" lon="3.65367">
        <ele>223</ele>
        <time>2021-09-27T15:29:18Z</time>
      </trkpt>
      <trkpt lat="47.53178" lon="3.65294">
        <ele>219</ele>
        <time>2021-09-27T15:29:15Z</time>
      </trkpt>
      <trkpt lat="47.53171" lon="3.65244">
        <ele>216</ele>
        <time>2021-09-27T15:29:13Z</time>
      </trkpt>
      <trkpt lat="47.53165" lon="3.65146">
        <ele>211</ele>
        <time>2021-09-27T15:29:09Z</time>
      </trkpt>
      <trkpt lat="47.53162" lon="3.65047">
        <ele>200</ele>
        <time>2021-09-27T15:29:05Z</time>
      </trkpt>
      <trkpt lat="47.53165" lon="3.64947">
        <ele>197</ele>
        <time>2021-09-27T15:29:01Z</time>
      </trkpt>
      <trkpt lat="47.53158" lon="3.64856">
        <ele>194</ele>
        <time>2021-09-27T15:28:57Z</time>
      </trkpt>
      <trkpt lat="47.53154" lon="3.64836">
        <ele>193</ele>
        <time>2021-09-27T15:28:56Z</time>
      </trkpt>
      <trkpt lat="47.53151" lon="3.64817">
        <ele>192</ele>
        <time>2021-09-27T15:28:55Z</time>
      </trkpt>
      <trkpt lat="47.53149" lon="3.64799">
        <ele>192</ele>
        <time>2021-09-27T15:28:54Z</time>
      </trkpt>
      <trkpt lat="47.5315" lon="3.64783">
        <ele>191</ele>
        <time>2021-09-27T15:28:53Z</time>
      </trkpt>
      <trkpt lat="47.53152" lon="3.64768">
        <ele>191</ele>
        <time>2021-09-27T15:28:52Z</time>
      </trkpt>
      <trkpt lat="47.53169" lon="3.64725">
        <ele>190</ele>
        <time>2021-09-27T15:28:49Z</time>
      </trkpt>
      <trkpt lat="47.53176" lon="3.6471">
        <ele>190</ele>
        <time>2021-09-27T15:28:48Z</time>
      </trkpt>
      <trkpt lat="47.53183" lon="3.64694">
        <ele>189</ele>
        <time>2021-09-27T15:28:47Z</time>
      </trkpt>
      <trkpt lat="47.53188" lon="3.64676">
        <ele>188</ele>
        <time>2021-09-27T15:28:46Z</time>
      </trkpt>
      <trkpt lat="47.53192" lon="3.64657">
        <ele>187</ele>
        <time>2021-09-27T15:28:45Z</time>
      </trkpt>
      <trkpt lat="47.53195" lon="3.64595">
        <ele>185</ele>
        <time>2021-09-27T15:28:42Z</time>
      </trkpt>
      <trkpt lat="47.53197" lon="3.64574">
        <ele>184</ele>
        <time>2021-09-27T15:28:41Z</time>
      </trkpt>
      <trkpt lat="47.53212" lon="3.64493">
        <ele>183</ele>
        <time>2021-09-27T15:28:37Z</time>
      </trkpt>
      <trkpt lat="47.53217" lon="3.64473">
        <ele>182</ele>
        <time>2021-09-27T15:28:36Z</time>
      </trkpt>
      <trkpt lat="47.5322" lon="3.64454">
        <ele>181</ele>
        <time>2021-09-27T15:28:35Z</time>
      </trkpt>
      <trkpt lat="47.53222" lon="3.64435">
        <ele>180</ele>
        <time>2021-09-27T15:28:34Z</time>
      </trkpt>
      <trkpt lat="47.5322" lon="3.64417">
        <ele>178</ele>
        <time>2021-09-27T15:28:33Z</time>
      </trkpt>
      <trkpt lat="47.53216" lon="3.64398">
        <ele>177</ele>
        <time>2021-09-27T15:28:32Z</time>
      </trkpt>
      <trkpt lat="47.53209" lon="3.64381">
        <ele>176</ele>
        <time>2021-09-27T15:28:31Z</time>
      </trkpt>
      <trkpt lat="47.532" lon="3.64364">
        <ele>175</ele>
        <time>2021-09-27T15:28:30Z</time>
      </trkpt>
      <trkpt lat="47.53191" lon="3.64349">
        <ele>174</ele>
        <time>2021-09-27T15:28:29Z</time>
      </trkpt>
      <trkpt lat="47.5318" lon="3.64335">
        <ele>174</ele>
        <time>2021-09-27T15:28:28Z</time>
      </trkpt>
      <trkpt lat="47.53169" lon="3.64323">
        <ele>173</ele>
        <time>2021-09-27T15:28:27Z</time>
      </trkpt>
      <trkpt lat="47.53096" lon="3.64273">
        <ele>167</ele>
        <time>2021-09-27T15:28:22Z</time>
      </trkpt>
      <trkpt lat="47.53035" lon="3.64209">
        <ele>166</ele>
        <time>2021-09-27T15:28:17Z</time>
      </trkpt>
      <trkpt lat="47.53027" lon="3.64195">
        <ele>166</ele>
        <time>2021-09-27T15:28:16Z</time>
      </trkpt>
      <trkpt lat="47.53019" lon="3.6418">
        <ele>166</ele>
        <time>2021-09-27T15:28:15Z</time>
      </trkpt>
      <trkpt lat="47.53013" lon="3.64165">
        <ele>167</ele>
        <time>2021-09-27T15:28:14Z</time>
      </trkpt>
      <trkpt lat="47.53008" lon="3.64149">
        <ele>166</ele>
        <time>2021-09-27T15:28:13Z</time>
      </trkpt>
      <trkpt lat="47.53005" lon="3.64132">
        <ele>164</ele>
        <time>2021-09-27T15:28:12Z</time>
      </trkpt>
      <trkpt lat="47.53006" lon="3.64047">
        <ele>160</ele>
        <time>2021-09-27T15:28:07Z</time>
      </trkpt>
      <trkpt lat="47.53011" lon="3.63926">
        <ele>161</ele>
        <time>2021-09-27T15:28:00Z</time>
      </trkpt>
      <trkpt lat="47.53035" lon="3.63818">
        <ele>154</ele>
        <time>2021-09-27T15:27:53Z</time>
      </trkpt>
      <trkpt lat="47.53063" lon="3.63731">
        <ele>149</ele>
        <time>2021-09-27T15:27:45Z</time>
      </trkpt>
      <trkpt lat="47.53086" lon="3.63682">
        <ele>146</ele>
        <time>2021-09-27T15:27:39Z</time>
      </trkpt>
      <trkpt lat="47.5313" lon="3.63574">
        <ele>140</ele>
        <time>2021-09-27T15:27:25Z</time>
      </trkpt>
      <trkpt lat="47.53137" lon="3.63548">
        <ele>140</ele>
        <time>2021-09-27T15:27:18Z</time>
      </trkpt>
      <trkpt lat="47.53151" lon="3.63465">
        <ele>137</ele>
        <time>2021-09-27T15:27:08Z</time>
      </trkpt>
      <trkpt lat="47.53151" lon="3.63458">
        <ele>137</ele>
        <time>2021-09-27T15:27:07Z</time>
      </trkpt>
      <trkpt lat="47.53152" lon="3.63452">
        <ele>137</ele>
        <time>2021-09-27T15:27:06Z</time>
      </trkpt>
      <trkpt lat="47.53153" lon="3.63447">
        <ele>137</ele>
        <time>2021-09-27T15:27:05Z</time>
      </trkpt>
      <trkpt lat="47.53156" lon="3.63445">
        <ele>137</ele>
        <time>2021-09-27T15:27:04Z</time>
      </trkpt>
      <trkpt lat="47.53158" lon="3.63443">
        <ele>137</ele>
        <time>2021-09-27T15:27:03Z</time>
      </trkpt>
      <trkpt lat="47.5321" lon="3.63447">
        <ele>138</ele>
        <time>2021-09-27T15:26:52Z</time>
      </trkpt>
      <trkpt lat="47.53218" lon="3.63446">
        <ele>138</ele>
        <time>2021-09-27T15:26:51Z</time>
      </trkpt>
      <trkpt lat="47.53224" lon="3.63445">
        <ele>138</ele>
        <time>2021-09-27T15:26:50Z</time>
      </trkpt>
      <trkpt lat="47.53273" lon="3.63416">
        <ele>138</ele>
        <time>2021-09-27T15:26:43Z</time>
      </trkpt>
      <trkpt lat="47.53286" lon="3.63414">
        <ele>137</ele>
        <time>2021-09-27T15:26:41Z</time>
      </trkpt>
      <trkpt lat="47.53297" lon="3.63414">
        <ele>136</ele>
        <time>2021-09-27T15:26:39Z</time>
      </trkpt>
      <trkpt lat="47.53323" lon="3.63421">
        <ele>134</ele>
        <time>2021-09-27T15:26:35Z</time>
      </trkpt>
      <trkpt lat="47.5333" lon="3.63423">
        <ele>133</ele>
        <time>2021-09-27T15:26:34Z</time>
      </trkpt>
      <trkpt lat="47.5336" lon="3.63419">
        <ele>133</ele>
        <time>2021-09-27T15:26:30Z</time>
      </trkpt>
      <trkpt lat="47.53367" lon="3.63417">
        <ele>133</ele>
        <time>2021-09-27T15:26:29Z</time>
      </trkpt>
      <trkpt lat="47.53434" lon="3.63361">
        <ele>129</ele>
        <time>2021-09-27T15:26:18Z</time>
      </trkpt>
      <trkpt lat="47.53439" lon="3.63356">
        <ele>129</ele>
        <time>2021-09-27T15:26:17Z</time>
      </trkpt>
      <trkpt lat="47.53442" lon="3.63353">
        <ele>129</ele>
        <time>2021-09-27T15:26:16Z</time>
      </trkpt>
      <trkpt lat="47.53443" lon="3.63349">
        <ele>129</ele>
        <time>2021-09-27T15:26:15Z</time>
      </trkpt>
      <trkpt lat="47.53444" lon="3.63346">
        <ele>129</ele>
        <time>2021-09-27T15:26:14Z</time>
      </trkpt>
      <trkpt lat="47.53444" lon="3.63344">
        <ele>129</ele>
        <time>2021-09-27T15:26:13Z</time>
      </trkpt>
      <trkpt lat="47.53443" lon="3.63342">
        <ele>129</ele>
        <time>2021-09-27T15:26:12Z</time>
      </trkpt>
      <trkpt lat="47.53442" lon="3.6334">
        <ele>129</ele>
        <time>2021-09-27T15:26:11Z</time>
      </trkpt>
      <trkpt lat="47.53439" lon="3.63337">
        <ele>129</ele>
        <time>2021-09-27T15:26:10Z</time>
      </trkpt>
      <trkpt lat="47.53359" lon="3.63311">
        <ele>131</ele>
        <time>2021-09-27T15:25:59Z</time>
      </trkpt>
      <trkpt lat="47.53351" lon="3.63309">
        <ele>131</ele>
        <time>2021-09-27T15:25:58Z</time>
      </trkpt>
      <trkpt lat="47.53344" lon="3.63306">
        <ele>131</ele>
        <time>2021-09-27T15:25:57Z</time>
      </trkpt>
      <trkpt lat="47.53338" lon="3.63302">
        <ele>131</ele>
        <time>2021-09-27T15:25:56Z</time>
      </trkpt>
      <trkpt lat="47.53334" lon="3.63295">
        <ele>131</ele>
        <time>2021-09-27T15:25:55Z</time>
      </trkpt>
      <trkpt lat="47.5328" lon="3.63202">
        <ele>131</ele>
        <time>2021-09-27T15:25:44Z</time>
      </trkpt>
      <trkpt lat="47.53244" lon="3.63152">
        <ele>133</ele>
        <time>2021-09-27T15:25:37Z</time>
      </trkpt>
      <trkpt lat="47.5322" lon="3.63088">
        <ele>132</ele>
        <time>2021-09-27T15:25:30Z</time>
      </trkpt>
      <trkpt lat="47.53199" lon="3.63055">
        <ele>134</ele>
        <time>2021-09-27T15:25:26Z</time>
      </trkpt>
      <trkpt lat="47.5312" lon="3.62935">
        <ele>133</ele>
        <time>2021-09-27T15:25:15Z</time>
      </trkpt>
      <trkpt lat="47.53055" lon="3.62733">
        <ele>134</ele>
        <time>2021-09-27T15:25:03Z</time>
      </trkpt>
      <trkpt lat="47.52961" lon="3.62431">
        <ele>138</ele>
        <time>2021-09-27T15:24:48Z</time>
      </trkpt>
      <trkpt lat="47.52956" lon="3.6241">
        <ele>138</ele>
        <time>2021-09-27T15:24:47Z</time>
      </trkpt>
      <trkpt lat="47.52947" lon="3.62342">
        <ele>136</ele>
        <time>2021-09-27T15:24:44Z</time>
      </trkpt>
      <trkpt lat="47.52939" lon="3.62112">
        <ele>139</ele>
        <time>2021-09-27T15:24:35Z</time>
      </trkpt>
      <trkpt lat="47.52952" lon="3.61906">
        <ele>145</ele>
        <time>2021-09-27T15:24:27Z</time>
      </trkpt>
      <trkpt lat="47.53017" lon="3.61668">
        <ele>145</ele>
        <time>2021-09-27T15:24:18Z</time>
      </trkpt>
      <trkpt lat="47.53073" lon="3.61457">
        <ele>138</ele>
        <time>2021-09-27T15:24:11Z</time>
      </trkpt>
      <trkpt lat="47.53162" lon="3.61297">
        <ele>136</ele>
        <time>2021-09-27T15:24:05Z</time>
      </trkpt>
      <trkpt lat="47.53291" lon="3.61171">
        <ele>133</ele>
        <time>2021-09-27T15:23:58Z</time>
      </trkpt>
      <trkpt lat="47.53386" lon="3.6108">
        <ele>134</ele>
        <time>2021-09-27T15:23:52Z</time>
      </trkpt>
      <trkpt lat="47.534" lon="3.61066">
        <ele>135</ele>
        <time>2021-09-27T15:23:51Z</time>
      </trkpt>
      <trkpt lat="47.53414" lon="3.61051">
        <ele>136</ele>
        <time>2021-09-27T15:23:50Z</time>
      </trkpt>
      <trkpt lat="47.53426" lon="3.61035">
        <ele>136</ele>
        <time>2021-09-27T15:23:49Z</time>
      </trkpt>
      <trkpt lat="47.53437" lon="3.61017">
        <ele>136</ele>
        <time>2021-09-27T15:23:48Z</time>
      </trkpt>
      <trkpt lat="47.53447" lon="3.60998">
        <ele>136</ele>
        <time>2021-09-27T15:23:47Z</time>
      </trkpt>
      <trkpt lat="47.53455" lon="3.60978">
        <ele>137</ele>
        <time>2021-09-27T15:23:46Z</time>
      </trkpt>
      <trkpt lat="47.53461" lon="3.60956">
        <ele>137</ele>
        <time>2021-09-27T15:23:45Z</time>
      </trkpt>
      <trkpt lat="47.53465" lon="3.60934">
        <ele>137</ele>
        <time>2021-09-27T15:23:44Z</time>
      </trkpt>
      <trkpt lat="47.53466" lon="3.60911">
        <ele>138</ele>
        <time>2021-09-27T15:23:43Z</time>
      </trkpt>
      <trkpt lat="47.53434" lon="3.60688">
        <ele>141</ele>
        <time>2021-09-27T15:23:33Z</time>
      </trkpt>
      <trkpt lat="47.53428" lon="3.60666">
        <ele>142</ele>
        <time>2021-09-27T15:23:32Z</time>
      </trkpt>
      <trkpt lat="47.53421" lon="3.60644">
        <ele>142</ele>
        <time>2021-09-27T15:23:31Z</time>
      </trkpt>
      <trkpt lat="47.53343" lon="3.60513">
        <ele>143</ele>
        <time>2021-09-27T15:23:24Z</time>
      </trkpt>
      <trkpt lat="47.53257" lon="3.60408">
        <ele>141</ele>
        <time>2021-09-27T15:23:18Z</time>
      </trkpt>
      <trkpt lat="47.53243" lon="3.60391">
        <ele>140</ele>
        <time>2021-09-27T15:23:17Z</time>
      </trkpt>
      <trkpt lat="47.5323" lon="3.60377">
        <ele>139</ele>
        <time>2021-09-27T15:23:16Z</time>
      </trkpt>
      <trkpt lat="47.53216" lon="3.60364">
        <ele>138</ele>
        <time>2021-09-27T15:23:15Z</time>
      </trkpt>
      <trkpt lat="47.53202" lon="3.60356">
        <ele>138</ele>
        <time>2021-09-27T15:23:14Z</time>
      </trkpt>
      <trkpt lat="47.53188" lon="3.6035">
        <ele>137</ele>
        <time>2021-09-27T15:23:13Z</time>
      </trkpt>
      <trkpt lat="47.53174" lon="3.60349">
        <ele>136</ele>
        <time>2021-09-27T15:23:12Z</time>
      </trkpt>
      <trkpt lat="47.53114" lon="3.6037">
        <ele>135</ele>
        <time>2021-09-27T15:23:08Z</time>
      </trkpt>
      <trkpt lat="47.52944" lon="3.60472">
        <ele>139</ele>
        <time>2021-09-27T15:22:58Z</time>
      </trkpt>
      <trkpt lat="47.5278" lon="3.60554">
        <ele>142</ele>
        <time>2021-09-27T15:22:50Z</time>
      </trkpt>
      <trkpt lat="47.52587" lon="3.60557">
        <ele>139</ele>
        <time>2021-09-27T15:22:42Z</time>
      </trkpt>
      <trkpt lat="47.52443" lon="3.60536">
        <ele>139</ele>
        <time>2021-09-27T15:22:35Z</time>
      </trkpt>
      <trkpt lat="47.52426" lon="3.60532">
        <ele>140</ele>
        <time>2021-09-27T15:22:34Z</time>
      </trkpt>
      <trkpt lat="47.52411" lon="3.60527">
        <ele>140</ele>
        <time>2021-09-27T15:22:33Z</time>
      </trkpt>
      <trkpt lat="47.52396" lon="3.6052">
        <ele>140</ele>
        <time>2021-09-27T15:22:32Z</time>
      </trkpt>
      <trkpt lat="47.52384" lon="3.60512">
        <ele>139</ele>
        <time>2021-09-27T15:22:31Z</time>
      </trkpt>
      <trkpt lat="47.52348" lon="3.60475">
        <ele>137</ele>
        <time>2021-09-27T15:22:28Z</time>
      </trkpt>
      <trkpt lat="47.52336" lon="3.6046">
        <ele>135</ele>
        <time>2021-09-27T15:22:27Z</time>
      </trkpt>
      <trkpt lat="47.52323" lon="3.60442">
        <ele>133</ele>
        <time>2021-09-27T15:22:26Z</time>
      </trkpt>
      <trkpt lat="47.52311" lon="3.60422">
        <ele>133</ele>
        <time>2021-09-27T15:22:25Z</time>
      </trkpt>
      <trkpt lat="47.523" lon="3.60401">
        <ele>133</ele>
        <time>2021-09-27T15:22:24Z</time>
      </trkpt>
      <trkpt lat="47.5229" lon="3.60377">
        <ele>132</ele>
        <time>2021-09-27T15:22:23Z</time>
      </trkpt>
      <trkpt lat="47.52282" lon="3.60352">
        <ele>131</ele>
        <time>2021-09-27T15:22:22Z</time>
      </trkpt>
      <trkpt lat="47.52251" lon="3.60042">
        <ele>133</ele>
        <time>2021-09-27T15:22:11Z</time>
      </trkpt>
      <trkpt lat="47.52224" lon="3.5968">
        <ele>132</ele>
        <time>2021-09-27T15:22:00Z</time>
      </trkpt>
      <trkpt lat="47.52208" lon="3.59321">
        <ele>135</ele>
        <time>2021-09-27T15:21:49Z</time>
      </trkpt>
      <trkpt lat="47.52249" lon="3.58968">
        <ele>135</ele>
        <time>2021-09-27T15:21:37Z</time>
      </trkpt>
      <trkpt lat="47.523" lon="3.58691">
        <ele>139</ele>
        <time>2021-09-27T15:21:26Z</time>
      </trkpt>
      <trkpt lat="47.5232" lon="3.58592">
        <ele>141</ele>
        <time>2021-09-27T15:21:20Z</time>
      </trkpt>
      <trkpt lat="47.52337" lon="3.58508">
        <ele>142</ele>
        <time>2021-09-27T15:21:11Z</time>
      </trkpt>
      <trkpt lat="47.52356" lon="3.58387">
        <ele>142</ele>
        <time>2021-09-27T15:21:01Z</time>
      </trkpt>
      <trkpt lat="47.52387" lon="3.58293">
        <ele>143</ele>
        <time>2021-09-27T15:20:52Z</time>
      </trkpt>
      <trkpt lat="47.52406" lon="3.58212">
        <ele>144</ele>
        <time>2021-09-27T15:20:43Z</time>
      </trkpt>
      <trkpt lat="47.52408" lon="3.58205">
        <ele>144</ele>
        <time>2021-09-27T15:20:42Z</time>
      </trkpt>
      <trkpt lat="47.52411" lon="3.582">
        <ele>144</ele>
        <time>2021-09-27T15:20:41Z</time>
      </trkpt>
      <trkpt lat="47.52413" lon="3.58196">
        <ele>144</ele>
        <time>2021-09-27T15:20:40Z</time>
      </trkpt>
      <trkpt lat="47.52428" lon="3.58159">
        <ele>144</ele>
        <time>2021-09-27T15:20:33Z</time>
      </trkpt>
      <trkpt lat="47.52432" lon="3.5815">
        <ele>144</ele>
        <time>2021-09-27T15:20:32Z</time>
      </trkpt>
      <trkpt lat="47.52436" lon="3.5814">
        <ele>143</ele>
        <time>2021-09-27T15:20:31Z</time>
      </trkpt>
      <trkpt lat="47.52459" lon="3.58037">
        <ele>143</ele>
        <time>2021-09-27T15:20:20Z</time>
      </trkpt>
      <trkpt lat="47.52507" lon="3.57813">
        <ele>143</ele>
        <time>2021-09-27T15:20:04Z</time>
      </trkpt>
      <trkpt lat="47.52524" lon="3.57657">
        <ele>146</ele>
        <time>2021-09-27T15:19:55Z</time>
      </trkpt>
      <trkpt lat="47.52523" lon="3.57418">
        <ele>143</ele>
        <time>2021-09-27T15:19:45Z</time>
      </trkpt>
      <trkpt lat="47.52521" lon="3.57019">
        <ele>135</ele>
        <time>2021-09-27T15:19:32Z</time>
      </trkpt>
      <trkpt lat="47.52518" lon="3.56619">
        <ele>135</ele>
        <time>2021-09-27T15:19:21Z</time>
      </trkpt>
      <trkpt lat="47.52504" lon="3.56221">
        <ele>137</ele>
        <time>2021-09-27T15:19:11Z</time>
      </trkpt>
      <trkpt lat="47.52483" lon="3.55942">
        <ele>139</ele>
        <time>2021-09-27T15:19:03Z</time>
      </trkpt>
      <trkpt lat="47.52437" lon="3.55677">
        <ele>140</ele>
        <time>2021-09-27T15:18:54Z</time>
      </trkpt>
      <trkpt lat="47.52419" lon="3.55492">
        <ele>141</ele>
        <time>2021-09-27T15:18:46Z</time>
      </trkpt>
      <trkpt lat="47.52371" lon="3.55281">
        <ele>151</ele>
        <time>2021-09-27T15:18:37Z</time>
      </trkpt>
      <trkpt lat="47.52296" lon="3.55057">
        <ele>145</ele>
        <time>2021-09-27T15:18:27Z</time>
      </trkpt>
      <trkpt lat="47.52202" lon="3.54794">
        <ele>148</ele>
        <time>2021-09-27T15:18:16Z</time>
      </trkpt>
      <trkpt lat="47.5208" lon="3.54426">
        <ele>149</ele>
        <time>2021-09-27T15:18:02Z</time>
      </trkpt>
      <trkpt lat="47.52035" lon="3.54244">
        <ele>149</ele>
        <time>2021-09-27T15:17:54Z</time>
      </trkpt>
      <trkpt lat="47.52027" lon="3.54056">
        <ele>144</ele>
        <time>2021-09-27T15:17:44Z</time>
      </trkpt>
      <trkpt lat="47.52027" lon="3.54041">
        <ele>144</ele>
        <time>2021-09-27T15:17:43Z</time>
      </trkpt>
      <trkpt lat="47.52027" lon="3.54027">
        <ele>144</ele>
        <time>2021-09-27T15:17:42Z</time>
      </trkpt>
      <trkpt lat="47.52029" lon="3.54015">
        <ele>143</ele>
        <time>2021-09-27T15:17:41Z</time>
      </trkpt>
      <trkpt lat="47.52031" lon="3.54003">
        <ele>143</ele>
        <time>2021-09-27T15:17:40Z</time>
      </trkpt>
      <trkpt lat="47.52033" lon="3.53992">
        <ele>143</ele>
        <time>2021-09-27T15:17:39Z</time>
      </trkpt>
      <trkpt lat="47.52034" lon="3.53982">
        <ele>143</ele>
        <time>2021-09-27T15:17:38Z</time>
      </trkpt>
      <trkpt lat="47.52033" lon="3.53972">
        <ele>142</ele>
        <time>2021-09-27T15:17:37Z</time>
      </trkpt>
      <trkpt lat="47.52029" lon="3.53963">
        <ele>142</ele>
        <time>2021-09-27T15:17:36Z</time>
      </trkpt>
      <trkpt lat="47.51969" lon="3.53858">
        <ele>147</ele>
        <time>2021-09-27T15:17:27Z</time>
      </trkpt>
      <trkpt lat="47.51897" lon="3.53727">
        <ele>146</ele>
        <time>2021-09-27T15:17:18Z</time>
      </trkpt>
      <trkpt lat="47.5179" lon="3.53564">
        <ele>148</ele>
        <time>2021-09-27T15:17:08Z</time>
      </trkpt>
      <trkpt lat="47.51632" lon="3.53349">
        <ele>153</ele>
        <time>2021-09-27T15:16:56Z</time>
      </trkpt>
      <trkpt lat="47.51398" lon="3.53029">
        <ele>154</ele>
        <time>2021-09-27T15:16:39Z</time>
      </trkpt>
      <trkpt lat="47.51208" lon="3.52889">
        <ele>148</ele>
        <time>2021-09-27T15:16:28Z</time>
      </trkpt>
      <trkpt lat="47.51133" lon="3.52846">
        <ele>149</ele>
        <time>2021-09-27T15:16:24Z</time>
      </trkpt>
      <trkpt lat="47.5104" lon="3.52792">
        <ele>154</ele>
        <time>2021-09-27T15:16:19Z</time>
      </trkpt>
      <trkpt lat="47.50936" lon="3.52732">
        <ele>156</ele>
        <time>2021-09-27T15:16:13Z</time>
      </trkpt>
      <trkpt lat="47.50847" lon="3.5268">
        <ele>159</ele>
        <time>2021-09-27T15:16:08Z</time>
      </trkpt>
      <trkpt lat="47.50757" lon="3.52627">
        <ele>160</ele>
        <time>2021-09-27T15:16:03Z</time>
      </trkpt>
      <trkpt lat="47.50672" lon="3.52578">
        <ele>166</ele>
        <time>2021-09-27T15:15:58Z</time>
      </trkpt>
      <trkpt lat="47.50586" lon="3.52526">
        <ele>167</ele>
        <time>2021-09-27T15:15:53Z</time>
      </trkpt>
      <trkpt lat="47.50514" lon="3.52485">
        <ele>171</ele>
        <time>2021-09-27T15:15:49Z</time>
      </trkpt>
      <trkpt lat="47.50495" lon="3.52476">
        <ele>172</ele>
        <time>2021-09-27T15:15:48Z</time>
      </trkpt>
      <trkpt lat="47.50475" lon="3.5247">
        <ele>175</ele>
        <time>2021-09-27T15:15:47Z</time>
      </trkpt>
      <trkpt lat="47.50434" lon="3.52467">
        <ele>177</ele>
        <time>2021-09-27T15:15:45Z</time>
      </trkpt>
      <trkpt lat="47.50372" lon="3.52478">
        <ele>180</ele>
        <time>2021-09-27T15:15:42Z</time>
      </trkpt>
      <trkpt lat="47.50291" lon="3.52513">
        <ele>184</ele>
        <time>2021-09-27T15:15:38Z</time>
      </trkpt>
      <trkpt lat="47.50194" lon="3.52559">
        <ele>192</ele>
        <time>2021-09-27T15:15:33Z</time>
      </trkpt>
      <trkpt lat="47.50021" lon="3.52639">
        <ele>197</ele>
        <time>2021-09-27T15:15:24Z</time>
      </trkpt>
      <trkpt lat="47.49856" lon="3.52702">
        <ele>198</ele>
        <time>2021-09-27T15:15:15Z</time>
      </trkpt>
      <trkpt lat="47.49763" lon="3.52701">
        <ele>198</ele>
        <time>2021-09-27T15:15:10Z</time>
      </trkpt>
      <trkpt lat="47.49685" lon="3.52678">
        <ele>198</ele>
        <time>2021-09-27T15:15:06Z</time>
      </trkpt>
      <trkpt lat="47.49646" lon="3.52664">
        <ele>198</ele>
        <time>2021-09-27T15:15:04Z</time>
      </trkpt>
      <trkpt lat="47.4959" lon="3.52647">
        <ele>193</ele>
        <time>2021-09-27T15:15:01Z</time>
      </trkpt>
      <trkpt lat="47.49536" lon="3.52639">
        <ele>192</ele>
        <time>2021-09-27T15:14:58Z</time>
      </trkpt>
      <trkpt lat="47.49484" lon="3.52641">
        <ele>192</ele>
        <time>2021-09-27T15:14:55Z</time>
      </trkpt>
      <trkpt lat="47.49433" lon="3.52653">
        <ele>193</ele>
        <time>2021-09-27T15:14:52Z</time>
      </trkpt>
      <trkpt lat="47.49399" lon="3.52666">
        <ele>190</ele>
        <time>2021-09-27T15:14:50Z</time>
      </trkpt>
      <trkpt lat="47.4935" lon="3.52694">
        <ele>185</ele>
        <time>2021-09-27T15:14:47Z</time>
      </trkpt>
      <trkpt lat="47.49304" lon="3.52734">
        <ele>180</ele>
        <time>2021-09-27T15:14:44Z</time>
      </trkpt>
      <trkpt lat="47.49259" lon="3.52783">
        <ele>176</ele>
        <time>2021-09-27T15:14:41Z</time>
      </trkpt>
      <trkpt lat="47.49213" lon="3.52838">
        <ele>175</ele>
        <time>2021-09-27T15:14:38Z</time>
      </trkpt>
      <trkpt lat="47.49162" lon="3.52887">
        <ele>168</ele>
        <time>2021-09-27T15:14:35Z</time>
      </trkpt>
      <trkpt lat="47.49027" lon="3.5294">
        <ele>151</ele>
        <time>2021-09-27T15:14:28Z</time>
      </trkpt>
      <trkpt lat="47.48624" lon="3.52967">
        <ele>151</ele>
        <time>2021-09-27T15:14:08Z</time>
      </trkpt>
      <trkpt lat="47.48341" lon="3.52977">
        <ele>156</ele>
        <time>2021-09-27T15:13:54Z</time>
      </trkpt>
      <trkpt lat="47.48198" lon="3.52916">
        <ele>151</ele>
        <time>2021-09-27T15:13:46Z</time>
      </trkpt>
      <trkpt lat="47.4804" lon="3.52821">
        <ele>154</ele>
        <time>2021-09-27T15:13:36Z</time>
      </trkpt>
      <trkpt lat="47.47908" lon="3.52764">
        <ele>156</ele>
        <time>2021-09-27T15:13:25Z</time>
      </trkpt>
      <trkpt lat="47.47898" lon="3.52761">
        <ele>155</ele>
        <time>2021-09-27T15:13:24Z</time>
      </trkpt>
      <trkpt lat="47.47876" lon="3.52759">
        <ele>155</ele>
        <time>2021-09-27T15:13:22Z</time>
      </trkpt>
      <trkpt lat="47.47867" lon="3.5276">
        <ele>155</ele>
        <time>2021-09-27T15:13:21Z</time>
      </trkpt>
      <trkpt lat="47.47858" lon="3.52761">
        <ele>156</ele>
        <time>2021-09-27T15:13:20Z</time>
      </trkpt>
      <trkpt lat="47.47852" lon="3.52756">
        <ele>154</ele>
        <time>2021-09-27T15:13:19Z</time>
      </trkpt>
      <trkpt lat="47.47848" lon="3.52748">
        <ele>152</ele>
        <time>2021-09-27T15:13:18Z</time>
      </trkpt>
      <trkpt lat="47.47847" lon="3.52739">
        <ele>150</ele>
        <time>2021-09-27T15:13:17Z</time>
      </trkpt>
      <trkpt lat="47.47849" lon="3.52718">
        <ele>147</ele>
        <time>2021-09-27T15:13:15Z</time>
      </trkpt>
      <trkpt lat="47.47849" lon="3.52706">
        <ele>147</ele>
        <time>2021-09-27T15:13:14Z</time>
      </trkpt>
      <trkpt lat="47.47842" lon="3.52663">
        <ele>145</ele>
        <time>2021-09-27T15:13:11Z</time>
      </trkpt>
      <trkpt lat="47.47779" lon="3.52463">
        <ele>146</ele>
        <time>2021-09-27T15:13:00Z</time>
      </trkpt>
      <trkpt lat="47.47686" lon="3.52164">
        <ele>150</ele>
        <time>2021-09-27T15:12:47Z</time>
      </trkpt>
      <trkpt lat="47.4761" lon="3.51925">
        <ele>148</ele>
        <time>2021-09-27T15:12:38Z</time>
      </trkpt>
      <trkpt lat="47.47547" lon="3.51757">
        <ele>151</ele>
        <time>2021-09-27T15:12:31Z</time>
      </trkpt>
      <trkpt lat="47.47479" lon="3.51603">
        <ele>154</ele>
        <time>2021-09-27T15:12:24Z</time>
      </trkpt>
      <trkpt lat="47.47371" lon="3.51396">
        <ele>158</ele>
        <time>2021-09-27T15:12:14Z</time>
      </trkpt>
      <trkpt lat="47.47282" lon="3.51262">
        <ele>163</ele>
        <time>2021-09-27T15:12:06Z</time>
      </trkpt>
      <trkpt lat="47.47273" lon="3.51248">
        <ele>164</ele>
        <time>2021-09-27T15:12:05Z</time>
      </trkpt>
      <trkpt lat="47.47263" lon="3.51237">
        <ele>164</ele>
        <time>2021-09-27T15:12:04Z</time>
      </trkpt>
      <trkpt lat="47.47253" lon="3.51227">
        <ele>164</ele>
        <time>2021-09-27T15:12:03Z</time>
      </trkpt>
      <trkpt lat="47.47243" lon="3.51222">
        <ele>165</ele>
        <time>2021-09-27T15:12:02Z</time>
      </trkpt>
      <trkpt lat="47.47234" lon="3.51217">
        <ele>166</ele>
        <time>2021-09-27T15:12:01Z</time>
      </trkpt>
      <trkpt lat="47.47227" lon="3.5121">
        <ele>166</ele>
        <time>2021-09-27T15:12:00Z</time>
      </trkpt>
      <trkpt lat="47.47221" lon="3.512">
        <ele>166</ele>
        <time>2021-09-27T15:11:59Z</time>
      </trkpt>
      <trkpt lat="47.47217" lon="3.51188">
        <ele>166</ele>
        <time>2021-09-27T15:11:58Z</time>
      </trkpt>
      <trkpt lat="47.47213" lon="3.51174">
        <ele>166</ele>
        <time>2021-09-27T15:11:57Z</time>
      </trkpt>
      <trkpt lat="47.47193" lon="3.51133">
        <ele>165</ele>
        <time>2021-09-27T15:11:54Z</time>
      </trkpt>
      <trkpt lat="47.4713" lon="3.51038">
        <ele>168</ele>
        <time>2021-09-27T15:11:48Z</time>
      </trkpt>
      <trkpt lat="47.47061" lon="3.50942">
        <ele>173</ele>
        <time>2021-09-27T15:11:43Z</time>
      </trkpt>
      <trkpt lat="47.46989" lon="3.50841">
        <ele>176</ele>
        <time>2021-09-27T15:11:38Z</time>
      </trkpt>
      <trkpt lat="47.46931" lon="3.50759">
        <ele>177</ele>
        <time>2021-09-27T15:11:34Z</time>
      </trkpt>
      <trkpt lat="47.46872" lon="3.50678">
        <ele>179</ele>
        <time>2021-09-27T15:11:30Z</time>
      </trkpt>
      <trkpt lat="47.46814" lon="3.50596">
        <ele>180</ele>
        <time>2021-09-27T15:11:26Z</time>
      </trkpt>
      <trkpt lat="47.46741" lon="3.50494">
        <ele>185</ele>
        <time>2021-09-27T15:11:21Z</time>
      </trkpt>
      <trkpt lat="47.46668" lon="3.50392">
        <ele>189</ele>
        <time>2021-09-27T15:11:16Z</time>
      </trkpt>
      <trkpt lat="47.46563" lon="3.50253">
        <ele>193</ele>
        <time>2021-09-27T15:11:09Z</time>
      </trkpt>
      <trkpt lat="47.46117" lon="3.49741">
        <ele>205</ele>
        <time>2021-09-27T15:10:41Z</time>
      </trkpt>
      <trkpt lat="47.4594" lon="3.49542">
        <ele>201</ele>
        <time>2021-09-27T15:10:30Z</time>
      </trkpt>
      <trkpt lat="47.45827" lon="3.49415">
        <ele>201</ele>
        <time>2021-09-27T15:10:23Z</time>
      </trkpt>
      <trkpt lat="47.45763" lon="3.49343">
        <ele>201</ele>
        <time>2021-09-27T15:10:19Z</time>
      </trkpt>
      <trkpt lat="47.45682" lon="3.49253">
        <ele>196</ele>
        <time>2021-09-27T15:10:14Z</time>
      </trkpt>
      <trkpt lat="47.45569" lon="3.49127">
        <ele>188</ele>
        <time>2021-09-27T15:10:07Z</time>
      </trkpt>
      <trkpt lat="47.45433" lon="3.48999">
        <ele>187</ele>
        <time>2021-09-27T15:09:59Z</time>
      </trkpt>
      <trkpt lat="47.45339" lon="3.4894">
        <ele>185</ele>
        <time>2021-09-27T15:09:54Z</time>
      </trkpt>
      <trkpt lat="47.45245" lon="3.48899">
        <ele>182</ele>
        <time>2021-09-27T15:09:49Z</time>
      </trkpt>
      <trkpt lat="47.45171" lon="3.48878">
        <ele>180</ele>
        <time>2021-09-27T15:09:45Z</time>
      </trkpt>
      <trkpt lat="47.45094" lon="3.48861">
        <ele>176</ele>
        <time>2021-09-27T15:09:41Z</time>
      </trkpt>
      <trkpt lat="47.45005" lon="3.48841">
        <ele>173</ele>
        <time>2021-09-27T15:09:36Z</time>
      </trkpt>
      <trkpt lat="47.4493" lon="3.48824">
        <ele>167</ele>
        <time>2021-09-27T15:09:31Z</time>
      </trkpt>
      <trkpt lat="47.44811" lon="3.48802">
        <ele>156</ele>
        <time>2021-09-27T15:09:23Z</time>
      </trkpt>
      <trkpt lat="47.44798" lon="3.488">
        <ele>156</ele>
        <time>2021-09-27T15:09:22Z</time>
      </trkpt>
      <trkpt lat="47.44785" lon="3.48799">
        <ele>156</ele>
        <time>2021-09-27T15:09:21Z</time>
      </trkpt>
      <trkpt lat="47.44774" lon="3.488">
        <ele>156</ele>
        <time>2021-09-27T15:09:20Z</time>
      </trkpt>
      <trkpt lat="47.44763" lon="3.48804">
        <ele>157</ele>
        <time>2021-09-27T15:09:19Z</time>
      </trkpt>
      <trkpt lat="47.44753" lon="3.48811">
        <ele>157</ele>
        <time>2021-09-27T15:09:18Z</time>
      </trkpt>
      <trkpt lat="47.44746" lon="3.48822">
        <ele>157</ele>
        <time>2021-09-27T15:09:17Z</time>
      </trkpt>
      <trkpt lat="47.44741" lon="3.48836">
        <ele>156</ele>
        <time>2021-09-27T15:09:16Z</time>
      </trkpt>
      <trkpt lat="47.4474" lon="3.48852">
        <ele>156</ele>
        <time>2021-09-27T15:09:15Z</time>
      </trkpt>
      <trkpt lat="47.44743" lon="3.48869">
        <ele>155</ele>
        <time>2021-09-27T15:09:14Z</time>
      </trkpt>
      <trkpt lat="47.44749" lon="3.48883">
        <ele>155</ele>
        <time>2021-09-27T15:09:13Z</time>
      </trkpt>
      <trkpt lat="47.44758" lon="3.48893">
        <ele>155</ele>
        <time>2021-09-27T15:09:12Z</time>
      </trkpt>
      <trkpt lat="47.44769" lon="3.48901">
        <ele>155</ele>
        <time>2021-09-27T15:09:11Z</time>
      </trkpt>
      <trkpt lat="47.44781" lon="3.48905">
        <ele>156</ele>
        <time>2021-09-27T15:09:10Z</time>
      </trkpt>
      <trkpt lat="47.44791" lon="3.48907">
        <ele>157</ele>
        <time>2021-09-27T15:09:09Z</time>
      </trkpt>
      <trkpt lat="47.448" lon="3.48906">
        <ele>157</ele>
        <time>2021-09-27T15:09:08Z</time>
      </trkpt>
      <trkpt lat="47.44808" lon="3.48903">
        <ele>158</ele>
        <time>2021-09-27T15:09:07Z</time>
      </trkpt>
      <trkpt lat="47.44815" lon="3.48898">
        <ele>158</ele>
        <time>2021-09-27T15:09:06Z</time>
      </trkpt>
      <trkpt lat="47.4482" lon="3.48892">
        <ele>159</ele>
        <time>2021-09-27T15:09:05Z</time>
      </trkpt>
      <trkpt lat="47.44823" lon="3.48884">
        <ele>159</ele>
        <time>2021-09-27T15:09:04Z</time>
      </trkpt>
      <trkpt lat="47.44854" lon="3.4876">
        <ele>157</ele>
        <time>2021-09-27T15:08:54Z</time>
      </trkpt>
      <trkpt lat="47.44857" lon="3.48746">
        <ele>156</ele>
        <time>2021-09-27T15:08:53Z</time>
      </trkpt>
      <trkpt lat="47.44858" lon="3.48732">
        <ele>156</ele>
        <time>2021-09-27T15:08:52Z</time>
      </trkpt>
      <trkpt lat="47.44859" lon="3.48719">
        <ele>155</ele>
        <time>2021-09-27T15:08:51Z</time>
      </trkpt>
      <trkpt lat="47.44859" lon="3.48707">
        <ele>154</ele>
        <time>2021-09-27T15:08:50Z</time>
      </trkpt>
      <trkpt lat="47.44861" lon="3.48696">
        <ele>154</ele>
        <time>2021-09-27T15:08:49Z</time>
      </trkpt>
      <trkpt lat="47.44866" lon="3.48687">
        <ele>153</ele>
        <time>2021-09-27T15:08:48Z</time>
      </trkpt>
      <trkpt lat="47.44871" lon="3.48679">
        <ele>153</ele>
        <time>2021-09-27T15:08:47Z</time>
      </trkpt>
      <trkpt lat="47.44876" lon="3.48668">
        <ele>153</ele>
        <time>2021-09-27T15:08:46Z</time>
      </trkpt>
      <trkpt lat="47.44888" lon="3.48621">
        <ele>152</ele>
        <time>2021-09-27T15:08:43Z</time>
      </trkpt>
      <trkpt lat="47.44959" lon="3.48322">
        <ele>154</ele>
        <time>2021-09-27T15:08:29Z</time>
      </trkpt>
      <trkpt lat="47.45064" lon="3.47881">
        <ele>156</ele>
        <time>2021-09-27T15:08:12Z</time>
      </trkpt>
      <trkpt lat="47.45148" lon="3.47531">
        <ele>156</ele>
        <time>2021-09-27T15:07:59Z</time>
      </trkpt>
      <trkpt lat="47.45199" lon="3.47318">
        <ele>160</ele>
        <time>2021-09-27T15:07:50Z</time>
      </trkpt>
      <trkpt lat="47.45205" lon="3.47299">
        <ele>160</ele>
        <time>2021-09-27T15:07:49Z</time>
      </trkpt>
      <trkpt lat="47.45261" lon="3.47201">
        <ele>160</ele>
        <time>2021-09-27T15:07:42Z</time>
      </trkpt>
      <trkpt lat="47.45439" lon="3.46978">
        <ele>161</ele>
        <time>2021-09-27T15:07:23Z</time>
      </trkpt>
      <trkpt lat="47.4555" lon="3.46817">
        <ele>162</ele>
        <time>2021-09-27T15:07:09Z</time>
      </trkpt>
      <trkpt lat="47.45558" lon="3.46805">
        <ele>162</ele>
        <time>2021-09-27T15:07:08Z</time>
      </trkpt>
      <trkpt lat="47.45613" lon="3.46681">
        <ele>163</ele>
        <time>2021-09-27T15:06:59Z</time>
      </trkpt>
      <trkpt lat="47.45664" lon="3.46521">
        <ele>163</ele>
        <time>2021-09-27T15:06:51Z</time>
      </trkpt>
      <trkpt lat="47.45701" lon="3.46304">
        <ele>160</ele>
        <time>2021-09-27T15:06:41Z</time>
      </trkpt>
      <trkpt lat="47.45712" lon="3.46206">
        <ele>161</ele>
        <time>2021-09-27T15:06:34Z</time>
      </trkpt>
      <trkpt lat="47.45714" lon="3.46198">
        <ele>161</ele>
        <time>2021-09-27T15:06:33Z</time>
      </trkpt>
      <trkpt lat="47.45716" lon="3.46193">
        <ele>161</ele>
        <time>2021-09-27T15:06:32Z</time>
      </trkpt>
      <trkpt lat="47.45728" lon="3.46185">
        <ele>162</ele>
        <time>2021-09-27T15:06:27Z</time>
      </trkpt>
      <trkpt lat="47.45761" lon="3.46166">
        <ele>164</ele>
        <time>2021-09-27T15:06:21Z</time>
      </trkpt>
      <trkpt lat="47.45837" lon="3.46101">
        <ele>168</ele>
        <time>2021-09-27T15:06:14Z</time>
      </trkpt>
      <trkpt lat="47.46001" lon="3.4595">
        <ele>168</ele>
        <time>2021-09-27T15:06:04Z</time>
      </trkpt>
      <trkpt lat="47.46016" lon="3.45932">
        <ele>169</ele>
        <time>2021-09-27T15:06:03Z</time>
      </trkpt>
      <trkpt lat="47.46029" lon="3.45911">
        <ele>170</ele>
        <time>2021-09-27T15:06:02Z</time>
      </trkpt>
      <trkpt lat="47.46134" lon="3.45585">
        <ele>170</ele>
        <time>2021-09-27T15:05:50Z</time>
      </trkpt>
      <trkpt lat="47.46142" lon="3.45559">
        <ele>170</ele>
        <time>2021-09-27T15:05:49Z</time>
      </trkpt>
      <trkpt lat="47.4615" lon="3.45535">
        <ele>170</ele>
        <time>2021-09-27T15:05:48Z</time>
      </trkpt>
      <trkpt lat="47.4616" lon="3.45514">
        <ele>168</ele>
        <time>2021-09-27T15:05:47Z</time>
      </trkpt>
      <trkpt lat="47.46172" lon="3.45494">
        <ele>168</ele>
        <time>2021-09-27T15:05:46Z</time>
      </trkpt>
      <trkpt lat="47.46185" lon="3.45476">
        <ele>167</ele>
        <time>2021-09-27T15:05:45Z</time>
      </trkpt>
      <trkpt lat="47.462" lon="3.4546">
        <ele>167</ele>
        <time>2021-09-27T15:05:44Z</time>
      </trkpt>
      <trkpt lat="47.46578" lon="3.45158">
        <ele>165</ele>
        <time>2021-09-27T15:05:23Z</time>
      </trkpt>
      <trkpt lat="47.4674" lon="3.44971">
        <ele>166</ele>
        <time>2021-09-27T15:05:13Z</time>
      </trkpt>
      <trkpt lat="47.46889" lon="3.44758">
        <ele>167</ele>
        <time>2021-09-27T15:05:03Z</time>
      </trkpt>
      <trkpt lat="47.46982" lon="3.44624">
        <ele>169</ele>
        <time>2021-09-27T15:04:55Z</time>
      </trkpt>
      <trkpt lat="47.47131" lon="3.44385">
        <ele>170</ele>
        <time>2021-09-27T15:04:39Z</time>
      </trkpt>
      <trkpt lat="47.47219" lon="3.44242">
        <ele>174</ele>
        <time>2021-09-27T15:04:30Z</time>
      </trkpt>
      <trkpt lat="47.47385" lon="3.43971">
        <ele>170</ele>
        <time>2021-09-27T15:04:18Z</time>
      </trkpt>
      <trkpt lat="47.47558" lon="3.43691">
        <ele>176</ele>
        <time>2021-09-27T15:04:05Z</time>
      </trkpt>
      <trkpt lat="47.47681" lon="3.43493">
        <ele>178</ele>
        <time>2021-09-27T15:03:54Z</time>
      </trkpt>
      <trkpt lat="47.47691" lon="3.43474">
        <ele>178</ele>
        <time>2021-09-27T15:03:53Z</time>
      </trkpt>
      <trkpt lat="47.47699" lon="3.43454">
        <ele>179</ele>
        <time>2021-09-27T15:03:52Z</time>
      </trkpt>
      <trkpt lat="47.47727" lon="3.43325">
        <ele>175</ele>
        <time>2021-09-27T15:03:46Z</time>
      </trkpt>
      <trkpt lat="47.47781" lon="3.43045">
        <ele>173</ele>
        <time>2021-09-27T15:03:35Z</time>
      </trkpt>
      <trkpt lat="47.47787" lon="3.4302">
        <ele>173</ele>
        <time>2021-09-27T15:03:34Z</time>
      </trkpt>
      <trkpt lat="47.47794" lon="3.42996">
        <ele>173</ele>
        <time>2021-09-27T15:03:33Z</time>
      </trkpt>
      <trkpt lat="47.47889" lon="3.42812">
        <ele>175</ele>
        <time>2021-09-27T15:03:25Z</time>
      </trkpt>
      <trkpt lat="47.4801" lon="3.42594">
        <ele>175</ele>
        <time>2021-09-27T15:03:15Z</time>
      </trkpt>
      <trkpt lat="47.48019" lon="3.42573">
        <ele>175</ele>
        <time>2021-09-27T15:03:14Z</time>
      </trkpt>
      <trkpt lat="47.48026" lon="3.42551">
        <ele>175</ele>
        <time>2021-09-27T15:03:13Z</time>
      </trkpt>
      <trkpt lat="47.48055" lon="3.4233">
        <ele>178</ele>
        <time>2021-09-27T15:03:02Z</time>
      </trkpt>
      <trkpt lat="47.48091" lon="3.42034">
        <ele>178</ele>
        <time>2021-09-27T15:02:46Z</time>
      </trkpt>
      <trkpt lat="47.48093" lon="3.42017">
        <ele>178</ele>
        <time>2021-09-27T15:02:45Z</time>
      </trkpt>
      <trkpt lat="47.48094" lon="3.42001">
        <ele>177</ele>
        <time>2021-09-27T15:02:44Z</time>
      </trkpt>
      <trkpt lat="47.48095" lon="3.41985">
        <ele>177</ele>
        <time>2021-09-27T15:02:43Z</time>
      </trkpt>
      <trkpt lat="47.48094" lon="3.4197">
        <ele>177</ele>
        <time>2021-09-27T15:02:42Z</time>
      </trkpt>
      <trkpt lat="47.48068" lon="3.41868">
        <ele>178</ele>
        <time>2021-09-27T15:02:35Z</time>
      </trkpt>
      <trkpt lat="47.48037" lon="3.41695">
        <ele>180</ele>
        <time>2021-09-27T15:02:22Z</time>
      </trkpt>
    </trkseg>
  </trk>
</gpx>